Location: Newark
(49.3000°N, 9.4667°E)
Time: 17:57:41
(UTC+00:00)

Transit 4A - Pass Details

Date: 05 June 2019
Orbit: 862 x 983 km, 66.8° (Epoch: 24 June)

Event Time Altitude Azimuth Distance (km) Brightness Sun altitude
Rises 20:40:05 0° 320° (NW) 3,697 13.4 -9.7°
Reaches altitude 10° 20:42:47 10° 314° (NW) 2,742 11.9 -10.0°
Maximum altitude 20:48:45 42° 246° (WSW) 1,354 8.9 -10.6°
Drops below altitude 10° 20:54:36 10° 178° (S) 2,680 9.8 -11.1°
Enters shadow 20:54:49 - 177° (S) 2,755 9.9 -11.1°
